User: anonymous   Login
Location: Te Maire Creek
(41.1333°S, 175.9167°E)
Time: 06:42:52
(UTC+00:00)
Language:

Spot 4 Rocket - Orbit

View from above orbital plane
View from above orbital plane
View from above satellite
View from above satellite

Ground track
Ground track

The orbit data is extracted from the following two-line orbital elements,

1 25261U 98017B   24201.91954683  .00000970  00000-0  35551-3 0  9993
2 25261  98.8482 204.2343 0004091  36.7784 323.3680 14.35194334375922
Epoch (UTC): 19 July 2024 22:04:08
Eccentricity: 0.0004091
inclination: 98.8482°
perigee height: 771 km
apogee height: 777 km
right ascension of ascending node: 204.2343°
argument of perigee: 36.7784°
revolutions per day: 14.35194334
mean anomaly at epoch: 323.3680°
orbit number at epoch: 37592

The dashed part of the orbit path shows where the satellite is in the earth's shadow,  

DLR